Location: Boiro
(42.6475°N, 8.8834°W)
Time: 06:33:03
(UTC+02:00)

DUCHIFAT 1 - Visible Passes

Search period start: 10 August 2022 00:00
Search period end: 20 August 2022 00:00
Orbit: 580 x 596 km, 98.0° (Epoch: 09 August)

Date Brightness Start Highest point End Pass type
(mag) Time Alt. Az. Time Alt. Az. Time Alt. Az.
10 Aug ? 04:42:55 10° NNE 04:46:42 33° E 04:47:15 32° ESE visible
10 Aug ? 06:18:47 10° NNW 06:21:57 21° WNW 06:23:44 16° W visible
11 Aug ? 04:50:13 10° NNE 04:54:10 40° E 04:54:40 38° ESE visible
11 Aug ? 06:26:27 10° NNW 06:29:18 18° WNW 06:31:10 14° W visible
12 Aug ? 04:57:32 10° NNE 05:01:36 49° E 05:02:05 46° SE visible
12 Aug ? 06:34:10 10° NNW 06:36:38 15° WNW 06:38:35 12° W visible
13 Aug ? 05:04:53 10° NNE 05:09:01 60° E 05:09:30 55° SE visible
13 Aug ? 06:42:01 10° NW 06:43:58 13° WNW 06:45:54 10° W visible
14 Aug ? 05:12:14 10° NNE 05:16:25 73° ESE 05:16:54 64° SSE visible
14 Aug ? 06:50:06 10° NW 06:51:15 11° WNW 06:52:24 10° WNW visible
15 Aug ? 05:19:37 10° NNE 05:23:48 88° E 05:24:18 69° S visible
16 Aug ? 05:27:01 10° N 05:31:11 77° WNW 05:31:42 65° SW visible
17 Aug ? 04:01:34 10° ENE 04:02:35 11° E 04:02:35 11° E visible
17 Aug ? 05:34:26 10° N 05:38:33 63° WNW 05:39:05 56° WSW visible
18 Aug ? 04:08:07 10° ENE 04:09:58 13° E 04:09:58 13° E visible
18 Aug ? 05:41:51 10° N 05:45:54 52° WNW 05:46:28 48° WSW visible
19 Aug ? 04:15:00 10° NE 04:17:20 16° E 04:17:20 16° E visible
19 Aug ? 05:49:18 10° N 05:53:14 43° WNW 05:53:49 40° W visible
